Time,TemperatureF,DewpointF,PressureIn,WindDirection,WindDirectionDegrees,WindSpeedMPH,WindSpeedGustMPH,Humidity,HourlyPrecipIn,Conditions,Clouds,dailyrainin,SoftwareType,DateUTC
2013-03-13 00:00:00,52.2,51.1,29.73,NW,319,0.0,3.0,96,0.00,,---,0.00,VWS V14.01,2013-03-13 04:00:00,
2013-03-13 00:05:00,52.2,51.1,29.73,NW,319,0.0,1.0,96,0.00,,---,0.00,VWS V14.01,2013-03-13 04:05:00,
2013-03-13 00:10:00,52.1,51.0,29.74,NW,319,0.0,1.0,96,0.00,,---,0.00,VWS V14.01,2013-03-13 04:10:00,
2013-03-13 00:15:00,52.0,50.9,29.74,West,274,0.0,4.0,96,0.00,,---,0.00,VWS V14.01,2013-03-13 04:15:00,
2013-03-13 00:20:00,52.1,51.0,29.73,West,265,0.0,5.0,96,0.00,,---,0.00,VWS V14.01,2013-03-13 04:20:00,
2013-03-13 00:25:00,52.1,51.0,29.73,SW,216,1.0,1.0,96,0.00,,---,0.00,VWS V14.01,2013-03-13 04:25:00,
2013-03-13 00:30:00,51.9,50.8,29.74,SSW,204,0.0,2.0,96,0.00,,---,0.00,VWS V14.01,2013-03-13 04:30:00,
2013-03-13 00:35:00,51.8,50.7,29.74,West,266,0.0,3.0,96,0.00,,---,0.00,VWS V14.01,2013-03-13 04:35:00,
2013-03-13 00:40:00,51.7,50.6,29.74,West,259,2.0,7.0,96,0.00,,---,0.00,VWS V14.01,2013-03-13 04:40:00,
2013-03-13 00:45:00,51.7,50.6,29.74,SSW,195,0.0,3.0,96,0.00,,---,0.00,VWS V14.01,2013-03-13 04:45:00,
2013-03-13 00:50:00,51.5,50.4,29.74,SSW,195,0.0,1.0,96,0.00,,---,0.00,VWS V14.01,2013-03-13 04:50:00,
2013-03-13 00:55:00,51.2,50.1,29.74,NW,314,0.0,4.0,96,0.00,,---,0.00,VWS V14.01,2013-03-13 04:55:00,
2013-03-13 01:00:00,51.0,49.6,29.74,West,262,3.0,4.0,95,0.00,,---,0.00,VWS V14.01,2013-03-13 05:00:00,
2013-03-13 01:05:00,50.5,49.1,29.74,North,355,1.0,5.0,95,0.01,,---,0.01,VWS V14.01,2013-03-13 05:05:00,
2013-03-13 01:10:00,49.8,47.9,29.74,NNE,30,1.0,7.0,93,0.01,,---,0.01,VWS V14.01,2013-03-13 05:10:00,
2013-03-13 01:15:00,49.2,47.3,29.74,NNW,341,1.0,3.0,93,0.01,,---,0.01,VWS V14.01,2013-03-13 05:15:00,
2013-03-13 01:20:00,48.4,45.9,29.75,NNE,13,5.0,7.0,91,0.01,,---,0.01,VWS V14.01,2013-03-13 05:20:00,
2013-03-13 01:25:00,47.7,44.9,29.75,NNW,328,1.0,7.0,90,0.01,,---,0.01,VWS V14.01,2013-03-13 05:25:00,
2013-03-13 01:30:00,47.2,44.4,29.75,NNE,21,3.0,3.0,90,0.01,,---,0.01,VWS V14.01,2013-03-13 05:30:00,
2013-03-13 01:35:00,46.7,43.9,29.75,NW,317,3.0,7.0,90,0.01,,---,0.01,VWS V14.01,2013-03-13 05:35:00,
2013-03-13 01:40:00,46.3,43.2,29.75,NNW,333,2.0,10.0,89,0.01,,---,0.01,VWS V14.01,2013-03-13 05:40:00,
2013-03-13 01:45:00,46.0,43.2,29.75,North,356,3.0,6.0,90,0.01,,---,0.01,VWS V14.01,2013-03-13 05:45:00,
2013-03-13 01:50:00,45.8,43.0,29.75,WNW,287,5.0,7.0,90,0.01,,---,0.01,VWS V14.01,2013-03-13 05:50:00,
2013-03-13 01:55:00,45.6,42.8,29.75,North,358,1.0,5.0,90,0.01,,---,0.01,VWS V14.01,2013-03-13 05:55:00,
2013-03-13 02:00:00,45.3,42.5,29.75,NNW,348,2.0,10.0,90,0.01,,---,0.01,VWS V14.01,2013-03-13 06:00:00,
2013-03-13 02:05:00,45.1,42.3,29.74,NW,324,1.0,7.0,90,0.01,,---,0.01,VWS V14.01,2013-03-13 06:05:00,
2013-03-13 02:10:00,44.9,42.2,29.75,NNW,341,3.0,4.0,90,0.00,,---,0.01,VWS V14.01,2013-03-13 06:10:00,
2013-03-13 02:15:00,44.7,42.0,29.75,NW,322,2.0,5.0,90,0.00,,---,0.01,VWS V14.01,2013-03-13 06:15:00,
2013-03-13 02:20:00,44.5,41.8,29.75,North,4,4.0,11.0,90,0.00,,---,0.01,VWS V14.01,2013-03-13 06:20:00,
2013-03-13 02:25:00,44.3,41.6,29.75,WNW,302,1.0,7.0,90,0.00,,---,0.01,VWS V14.01,2013-03-13 06:25:00,
2013-03-13 02:30:00,44.1,41.4,29.75,NNE,13,1.0,4.0,90,0.00,,---,0.01,VWS V14.01,2013-03-13 06:30:00,
2013-03-13 02:35:00,43.9,41.2,29.74,North,2,1.0,6.0,90,0.00,,---,0.01,VWS V14.01,2013-03-13 06:35:00,
2013-03-13 02:40:00,43.8,41.1,29.75,NW,322,0.0,3.0,90,0.00,,---,0.01,VWS V14.01,2013-03-13 06:40:00,
2013-03-13 02:45:00,43.7,41.0,29.76,NW,304,3.0,4.0,90,0.00,,---,0.01,VWS V14.01,2013-03-13 06:45:00,
2013-03-13 02:50:00,43.6,40.9,29.77,WNW,294,2.0,3.0,90,0.00,,---,0.01,VWS V14.01,2013-03-13 06:50:00,
2013-03-13 02:55:00,43.6,40.9,29.77,NW,306,0.0,4.0,90,0.00,,---,0.01,VWS V14.01,2013-03-13 06:55:00,
2013-03-13 03:00:00,43.5,40.8,29.77,NNW,334,2.0,2.0,90,0.00,,---,0.01,VWS V14.01,2013-03-13 07:00:00,
2013-03-13 03:05:00,43.3,40.6,29.76,NE,40,4.0,5.0,90,0.00,,---,0.01,VWS V14.01,2013-03-13 07:05:00,
2013-03-13 03:10:00,43.1,40.1,29.76,North,357,0.0,7.0,89,0.00,,---,0.01,VWS V14.01,2013-03-13 07:10:00,
2013-03-13 03:15:00,42.9,39.9,29.76,NNW,342,0.0,3.0,89,0.00,,---,0.01,VWS V14.01,2013-03-13 07:15:00,
2013-03-13 03:20:00,42.7,39.7,29.76,NNW,342,0.0,2.0,89,0.00,,---,0.01,VWS V14.01,2013-03-13 07:20:00,
2013-03-13 03:25:00,42.6,39.6,29.76,NNW,341,5.0,5.0,89,0.00,,---,0.01,VWS V14.01,2013-03-13 07:25:00,
2013-03-13 03:30:00,42.4,39.4,29.75,NNE,16,1.0,5.0,89,0.00,,---,0.01,VWS V14.01,2013-03-13 07:30:00,
2013-03-13 03:35:00,42.2,38.9,29.75,NNW,345,5.0,7.0,88,0.00,,---,0.01,VWS V14.01,2013-03-13 07:35:00,
2013-03-13 03:40:00,42.2,38.9,29.75,NW,308,2.0,5.0,88,0.00,,---,0.01,VWS V14.01,2013-03-13 07:40:00,
2013-03-13 03:45:00,42.0,38.7,29.74,NW,316,0.0,2.0,88,0.00,,---,0.01,VWS V14.01,2013-03-13 07:45:00,
2013-03-13 03:50:00,41.8,38.5,29.75,NW,308,1.0,5.0,88,0.00,,---,0.01,VWS V14.01,2013-03-13 07:50:00,
2013-03-13 03:55:00,41.6,38.6,29.75,NNW,340,3.0,5.0,89,0.00,,---,0.01,VWS V14.01,2013-03-13 07:55:00,
2013-03-13 04:00:00,41.5,38.5,29.74,NW,314,3.0,6.0,89,0.00,,---,0.01,VWS V14.01,2013-03-13 08:00:00,
2013-03-13 04:05:00,41.4,38.1,29.74,North,8,2.0,6.0,88,0.00,,---,0.01,VWS V14.01,2013-03-13 08:05:00,
2013-03-13 04:10:00,41.2,37.6,29.75,WNW,286,3.0,3.0,87,0.00,,---,0.01,VWS V14.01,2013-03-13 08:10:00,
2013-03-13 04:15:00,41.1,37.5,29.76,SW,220,0.0,4.0,87,0.00,,---,0.01,VWS V14.01,2013-03-13 08:15:00,
2013-03-13 04:20:00,41.1,37.5,29.77,NE,40,1.0,8.0,87,0.00,,---,0.01,VWS V14.01,2013-03-13 08:20:00,
2013-03-13 04:25:00,41.1,37.8,29.76,NNW,335,2.0,7.0,88,0.00,,---,0.01,VWS V14.01,2013-03-13 08:25:00,
2013-03-13 04:30:00,41.1,37.8,29.77,NNW,333,5.0,7.0,88,0.00,,---,0.01,VWS V14.01,2013-03-13 08:30:00,
2013-03-13 04:35:00,41.0,37.1,29.76,WNW,298,3.0,11.0,86,0.00,,---,0.01,VWS V14.01,2013-03-13 08:35:00,
2013-03-13 04:40:00,40.9,36.8,29.77,NNE,30,6.0,10.0,85,0.00,,---,0.01,VWS V14.01,2013-03-13 08:40:00,
2013-03-13 04:45:00,40.7,36.2,29.76,NE,40,4.0,6.0,84,0.00,,---,0.01,VWS V14.01,2013-03-13 08:45:00,
2013-03-13 04:50:00,40.5,35.8,29.77,WSW,248,2.0,10.0,83,0.00,,---,0.01,VWS V14.01,2013-03-13 08:50:00,
2013-03-13 04:55:00,40.3,35.9,29.77,NNE,30,3.0,4.0,84,0.00,,---,0.01,VWS V14.01,2013-03-13 08:55:00,
2013-03-13 05:00:00,40.0,35.6,29.77,NW,305,4.0,9.0,84,0.00,,---,0.01,VWS V14.01,2013-03-13 09:00:00,
2013-03-13 05:05:00,39.8,35.4,29.77,North,7,2.0,6.0,84,0.00,,---,0.01,VWS V14.01,2013-03-13 09:05:00,
2013-03-13 05:10:00,39.6,35.2,29.77,NNE,30,1.0,6.0,84,0.00,,---,0.01,VWS V14.01,2013-03-13 09:10:00,
2013-03-13 05:15:00,39.3,34.9,29.77,North,5,4.0,9.0,84,0.00,,---,0.01,VWS V14.01,2013-03-13 09:15:00,
2013-03-13 05:20:00,39.2,35.1,29.77,NNE,17,3.0,9.0,85,0.00,,---,0.01,VWS V14.01,2013-03-13 09:20:00,
2013-03-13 05:25:00,39.0,34.6,29.77,NNE,19,4.0,5.0,84,0.00,,---,0.01,VWS V14.01,2013-03-13 09:25:00,
2013-03-13 05:30:00,38.9,34.5,29.77,North,4,1.0,5.0,84,0.00,,---,0.01,VWS V14.01,2013-03-13 09:30:00,
2013-03-13 05:35:00,38.7,34.6,29.77,NNW,336,1.0,4.0,85,0.00,,---,0.01,VWS V14.01,2013-03-13 09:35:00,
2013-03-13 05:40:00,38.6,34.5,29.77,North,10,4.0,6.0,85,0.00,,---,0.01,VWS V14.01,2013-03-13 09:40:00,
2013-03-13 05:45:00,38.5,34.4,29.77,NNW,340,3.0,5.0,85,0.00,,---,0.01,VWS V14.01,2013-03-13 09:45:00,
2013-03-13 05:50:00,38.4,34.3,29.78,WNW,303,1.0,7.0,85,0.00,,---,0.01,VWS V14.01,2013-03-13 09:50:00,
2013-03-13 05:55:00,38.4,34.3,29.77,NNW,327,2.0,6.0,85,0.00,,---,0.01,VWS V14.01,2013-03-13 09:55:00,
2013-03-13 06:00:00,38.3,34.2,29.77,NW,311,1.0,4.0,85,0.00,,---,0.01,VWS V14.01,2013-03-13 10:00:00,
2013-03-13 06:05:00,38.2,34.1,29.77,NNW,331,0.0,6.0,85,0.00,,---,0.01,VWS V14.01,2013-03-13 10:05:00,
2013-03-13 06:10:00,38.1,34.0,29.77,NNE,15,0.0,6.0,85,0.00,,---,0.01,VWS V14.01,2013-03-13 10:10:00,
2013-03-13 06:15:00,38.0,33.9,29.77,NNW,334,1.0,6.0,85,0.00,,---,0.01,VWS V14.01,2013-03-13 10:15:00,
2013-03-13 06:20:00,37.9,33.8,29.77,WNW,291,2.0,6.0,85,0.00,,---,0.01,VWS V14.01,2013-03-13 10:20:00,
2013-03-13 06:25:00,37.8,33.7,29.77,NNE,30,4.0,6.0,85,0.00,,---,0.01,VWS V14.01,2013-03-13 10:25:00,
2013-03-13 06:30:00,37.7,33.6,29.77,NNW,331,1.0,7.0,85,0.00,,---,0.01,VWS V14.01,2013-03-13 10:30:00,
2013-03-13 06:35:00,37.7,33.3,29.77,North,357,0.0,5.0,84,0.00,,---,0.01,VWS V14.01,2013-03-13 10:35:00,
2013-03-13 06:40:00,37.6,33.2,29.77,NNW,327,0.0,4.0,84,0.00,,---,0.01,VWS V14.01,2013-03-13 10:40:00,
2013-03-13 06:45:00,37.5,33.1,29.77,NW,319,1.0,5.0,84,0.00,,---,0.01,VWS V14.01,2013-03-13 10:45:00,
2013-03-13 06:50:00,37.5,32.8,29.77,NNE,25,1.0,6.0,83,0.00,,---,0.01,VWS V14.01,2013-03-13 10:50:00,
2013-03-13 06:55:00,37.4,32.7,29.77,NNW,339,1.0,2.0,83,0.00,,---,0.01,VWS V14.01,2013-03-13 10:55:00,
2013-03-13 07:00:00,37.3,32.6,29.77,NW,323,0.0,3.0,83,0.00,,---,0.01,VWS V14.01,2013-03-13 11:00:00,
2013-03-13 07:05:00,37.2,32.5,29.77,NNW,336,0.0,5.0,83,0.00,,---,0.01,VWS V14.01,2013-03-13 11:05:00,
2013-03-13 07:10:00,37.1,32.4,29.77,NW,321,2.0,3.0,83,0.00,,---,0.01,VWS V14.01,2013-03-13 11:10:00,
2013-03-13 07:15:00,36.9,32.2,29.77,NW,321,2.0,3.0,83,0.00,,---,0.01,VWS V14.01,2013-03-13 11:15:00,
2013-03-13 07:20:00,36.9,32.2,29.77,NW,319,0.0,3.0,83,0.00,,---,0.01,VWS V14.01,2013-03-13 11:20:00,
2013-03-13 07:25:00,36.9,32.2,29.77,NW,320,0.0,5.0,83,0.00,,---,0.01,VWS V14.01,2013-03-13 11:25:00,
2013-03-13 07:30:00,36.9,32.2,29.77,NNW,327,2.0,6.0,83,0.00,,---,0.01,VWS V14.01,2013-03-13 11:30:00,
2013-03-13 07:35:00,37.0,32.0,29.77,North,358,2.0,3.0,82,0.00,,---,0.01,VWS V14.01,2013-03-13 11:35:00,
2013-03-13 07:40:00,37.1,32.1,29.77,NW,307,0.0,5.0,82,0.00,,---,0.01,VWS V14.01,2013-03-13 11:40:00,
2013-03-13 07:45:00,37.3,32.0,29.77,North,4,3.0,4.0,81,0.00,,---,0.01,VWS V14.01,2013-03-13 11:45:00,
2013-03-13 07:50:00,37.5,32.2,29.77,NNW,347,2.0,5.0,81,0.00,,---,0.01,VWS V14.01,2013-03-13 11:50:00,
2013-03-13 07:55:00,37.8,32.2,29.77,NW,312,0.0,7.0,80,0.00,,---,0.01,VWS V14.01,2013-03-13 11:55:00,
2013-03-13 08:00:00,38.0,32.4,29.77,NNE,23,6.0,6.0,80,0.00,,---,0.01,VWS V14.01,2013-03-13 12:00:00,
2013-03-13 08:05:00,38.0,32.4,29.77,West,272,0.0,6.0,80,0.00,,---,0.01,VWS V14.01,2013-03-13 12:05:00,
2013-03-13 08:10:00,38.1,32.2,29.77,NW,304,0.0,5.0,79,0.00,,---,0.01,VWS V14.01,2013-03-13 12:10:00,
2013-03-13 08:15:00,38.2,32.3,29.77,NNW,340,1.0,3.0,79,0.00,,---,0.01,VWS V14.01,2013-03-13 12:15:00,
2013-03-13 08:20:00,38.3,32.4,29.77,WNW,300,1.0,5.0,79,0.00,,---,0.01,VWS V14.01,2013-03-13 12:20:00,
2013-03-13 08:25:00,38.4,32.2,29.77,West,272,4.0,7.0,78,0.00,,---,0.01,VWS V14.01,2013-03-13 12:25:00,
2013-03-13 08:30:00,38.5,32.6,29.77,WNW,294,0.0,6.0,79,0.00,,---,0.01,VWS V14.01,2013-03-13 12:30:00,
2013-03-13 08:35:00,38.7,32.4,29.77,WNW,303,2.0,6.0,78,0.00,,---,0.01,VWS V14.01,2013-03-13 12:35:00,
2013-03-13 08:40:00,39.1,32.8,29.76,WNW,303,1.0,6.0,78,0.00,,---,0.01,VWS V14.01,2013-03-13 12:40:00,
2013-03-13 08:45:00,39.3,32.7,29.76,West,267,0.0,5.0,77,0.00,,---,0.01,VWS V14.01,2013-03-13 12:45:00,
2013-03-13 08:50:00,39.5,32.9,29.76,North,2,2.0,8.0,77,0.00,,---,0.01,VWS V14.01,2013-03-13 12:50:00,
2013-03-13 08:55:00,39.6,33.0,29.76,WNW,298,4.0,5.0,77,0.00,,---,0.01,VWS V14.01,2013-03-13 12:55:00,
2013-03-13 09:00:00,39.8,33.2,29.76,NNW,327,0.0,6.0,77,0.00,,---,0.01,VWS V14.01,2013-03-13 13:00:00,
2013-03-13 09:05:00,40.0,33.4,29.76,North,10,4.0,7.0,77,0.00,,---,0.01,VWS V14.01,2013-03-13 13:05:00,
2013-03-13 09:10:00,40.1,33.2,29.76,North,8,1.0,7.0,76,0.00,,---,0.01,VWS V14.01,2013-03-13 13:10:00,
2013-03-13 09:15:00,40.4,33.5,29.76,WNW,294,2.0,5.0,76,0.00,,---,0.01,VWS V14.01,2013-03-13 13:15:00,
2013-03-13 09:20:00,40.7,33.7,29.76,NE,44,4.0,7.0,76,0.00,,---,0.01,VWS V14.01,2013-03-13 13:20:00,
2013-03-13 09:25:00,41.1,34.1,29.76,WNW,301,4.0,6.0,76,0.00,,---,0.01,VWS V14.01,2013-03-13 13:25:00,
2013-03-13 09:30:00,41.5,34.2,29.76,NW,325,5.0,10.0,75,0.00,,---,0.01,VWS V14.01,2013-03-13 13:30:00,
2013-03-13 09:35:00,41.7,34.0,29.75,WNW,298,4.0,7.0,74,0.00,,---,0.01,VWS V14.01,2013-03-13 13:35:00,
2013-03-13 09:40:00,42.0,34.3,29.76,North,352,4.0,10.0,74,0.00,,---,0.01,VWS V14.01,2013-03-13 13:40:00,
2013-03-13 09:45:00,42.5,34.8,29.76,NNW,348,2.0,10.0,74,0.00,,---,0.01,VWS V14.01,2013-03-13 13:45:00,
2013-03-13 09:50:00,42.8,34.1,29.76,NW,323,3.0,10.0,71,0.00,,---,0.01,VWS V14.01,2013-03-13 13:50:00,
2013-03-13 09:55:00,42.9,34.5,29.76,NW,326,0.0,7.0,72,0.00,,---,0.01,VWS V14.01,2013-03-13 13:55:00,
2013-03-13 10:00:00,43.2,34.8,29.76,NNE,30,1.0,4.0,72,0.00,,---,0.01,VWS V14.01,2013-03-13 14:00:00,
2013-03-13 10:05:00,43.3,34.5,29.76,NNW,333,0.0,5.0,71,0.00,,---,0.01,VWS V14.01,2013-03-13 14:05:00,
2013-03-13 10:10:00,43.7,34.9,29.76,WNW,289,1.0,5.0,71,0.00,,---,0.01,VWS V14.01,2013-03-13 14:10:00,
2013-03-13 10:15:00,43.8,34.7,29.76,NNW,332,4.0,7.0,70,0.00,,---,0.01,VWS V14.01,2013-03-13 14:15:00,
2013-03-13 10:20:00,43.9,34.8,29.75,NNW,348,3.0,8.0,70,0.00,,---,0.01,VWS V14.01,2013-03-13 14:20:00,
2013-03-13 10:25:00,44.3,34.8,29.75,NE,45,2.0,6.0,69,0.00,,---,0.01,VWS V14.01,2013-03-13 14:25:00,
2013-03-13 10:30:00,44.3,34.8,29.75,NNE,16,1.0,11.0,69,0.00,,---,0.01,VWS V14.01,2013-03-13 14:30:00,
2013-03-13 10:35:00,44.5,35.0,29.75,NNW,339,3.0,9.0,69,0.00,,---,0.01,VWS V14.01,2013-03-13 14:35:00,
2013-03-13 10:40:00,44.8,34.9,29.75,NNW,327,5.0,7.0,68,0.00,,---,0.01,VWS V14.01,2013-03-13 14:40:00,
2013-03-13 10:45:00,45.1,34.8,29.75,West,267,7.0,11.0,67,0.00,,---,0.01,VWS V14.01,2013-03-13 14:45:00,
2013-03-13 10:50:00,45.5,35.2,29.75,NW,312,7.0,9.0,67,0.00,,---,0.01,VWS V14.01,2013-03-13 14:50:00,
2013-03-13 10:55:00,45.8,35.1,29.75,NNW,339,5.0,7.0,66,0.00,,---,0.01,VWS V14.01,2013-03-13 14:55:00,
2013-03-13 11:00:00,46.0,35.3,29.74,NNW,338,4.0,9.0,66,0.00,,---,0.01,VWS V14.01,2013-03-13 15:00:00,
2013-03-13 11:05:00,45.9,34.8,29.74,NNE,17,1.0,9.0,65,0.00,,---,0.01,VWS V14.01,2013-03-13 15:05:00,
2013-03-13 11:10:00,46.1,34.6,29.74,NE,35,2.0,7.0,64,0.00,,---,0.01,VWS V14.01,2013-03-13 15:10:00,
2013-03-13 11:15:00,46.5,35.0,29.74,North,352,1.0,12.0,64,0.00,,---,0.01,VWS V14.01,2013-03-13 15:15:00,
2013-03-13 11:20:00,46.5,35.0,29.74,NE,40,6.0,9.0,64,0.00,,---,0.01,VWS V14.01,2013-03-13 15:20:00,
2013-03-13 11:25:00,46.4,34.1,29.74,NW,316,1.0,9.0,62,0.00,,---,0.01,VWS V14.01,2013-03-13 15:25:00,
2013-03-13 11:30:00,46.8,35.3,29.73,North,349,0.0,7.0,64,0.00,,---,0.01,VWS V14.01,2013-03-13 15:30:00,
2013-03-13 11:35:00,47.0,34.7,29.73,NNE,30,7.0,8.0,62,0.00,,---,0.01,VWS V14.01,2013-03-13 15:35:00,
2013-03-13 11:40:00,47.5,35.5,29.73,West,260,2.0,9.0,63,0.00,,---,0.01,VWS V14.01,2013-03-13 15:40:00,
2013-03-13 11:45:00,47.9,35.5,29.73,North,360,3.0,7.0,62,0.00,,---,0.01,VWS V14.01,2013-03-13 15:45:00,
2013-03-13 11:50:00,48.1,35.7,29.73,NNW,334,7.0,7.0,62,0.00,,---,0.01,VWS V14.01,2013-03-13 15:50:00,
2013-03-13 11:55:00,47.8,34.6,29.74,NE,44,7.0,11.0,60,0.00,,---,0.01,VWS V14.01,2013-03-13 15:55:00,
2013-03-13 12:00:00,47.8,34.6,29.74,WNW,300,3.0,10.0,60,0.00,,---,0.01,VWS V14.01,2013-03-13 16:00:00,
2013-03-13 12:05:00,48.3,35.9,29.74,North,5,4.0,13.0,62,0.00,,---,0.01,VWS V14.01,2013-03-13 16:05:00,
2013-03-13 12:10:00,48.7,35.0,29.74,NNW,339,3.0,9.0,59,0.00,,---,0.01,VWS V14.01,2013-03-13 16:10:00,
2013-03-13 12:15:00,48.4,34.3,29.74,NNW,341,7.0,10.0,58,0.00,,---,0.01,VWS V14.01,2013-03-13 16:15:00,
2013-03-13 12:20:00,47.9,33.4,29.74,NNW,328,4.0,16.0,57,0.00,,---,0.01,VWS V14.01,2013-03-13 16:20:00,
2013-03-13 12:25:00,47.8,34.6,29.74,North,10,3.0,7.0,60,0.00,,---,0.01,VWS V14.01,2013-03-13 16:25:00,
2013-03-13 12:30:00,48.2,33.7,29.75,WNW,298,4.0,11.0,57,0.00,,---,0.01,VWS V14.01,2013-03-13 16:30:00,
2013-03-13 12:35:00,48.2,34.1,29.74,NW,326,2.0,9.0,58,0.00,,---,0.01,VWS V14.01,2013-03-13 16:35:00,
2013-03-13 12:40:00,48.6,34.5,29.74,WNW,294,10.0,10.0,58,0.00,,---,0.01,VWS V14.01,2013-03-13 16:40:00,
2013-03-13 12:45:00,48.6,34.1,29.74,WSW,252,5.0,12.0,57,0.00,,---,0.01,VWS V14.01,2013-03-13 16:45:00,
2013-03-13 12:50:00,48.8,34.7,29.74,NE,40,4.0,11.0,58,0.00,,---,0.01,VWS V14.01,2013-03-13 16:50:00,
2013-03-13 12:55:00,49.2,35.5,29.74,WNW,289,9.0,12.0,59,0.00,,---,0.01,VWS V14.01,2013-03-13 16:55:00,
2013-03-13 13:00:00,49.4,34.4,29.73,NNW,331,2.0,9.0,56,0.00,,---,0.01,VWS V14.01,2013-03-13 17:00:00,
2013-03-13 13:05:00,49.6,34.6,29.74,NE,40,0.0,11.0,56,0.00,,---,0.01,VWS V14.01,2013-03-13 17:05:00,
2013-03-13 13:10:00,49.6,34.6,29.74,NNW,332,5.0,10.0,56,0.00,,---,0.01,VWS V14.01,2013-03-13 17:10:00,
2013-03-13 13:15:00,49.7,34.2,29.73,North,357,3.0,9.0,55,0.00,,---,0.01,VWS V14.01,2013-03-13 17:15:00,
2013-03-13 13:20:00,49.8,33.8,29.73,NE,40,1.0,10.0,54,0.00,,---,0.01,VWS V14.01,2013-03-13 17:20:00,
2013-03-13 13:25:00,49.6,33.7,29.73,NW,321,2.0,13.0,54,0.00,,---,0.01,VWS V14.01,2013-03-13 17:25:00,
2013-03-13 13:30:00,49.5,33.6,29.73,NNW,333,4.0,12.0,54,0.00,,---,0.01,VWS V14.01,2013-03-13 17:30:00,
2013-03-13 13:35:00,49.5,33.6,29.73,West,274,1.0,12.0,54,0.00,,---,0.01,VWS V14.01,2013-03-13 17:35:00,
2013-03-13 13:40:00,49.9,33.9,29.72,NNW,328,2.0,6.0,54,0.00,,---,0.01,VWS V14.01,2013-03-13 17:40:00,
2013-03-13 13:45:00,50.0,33.1,29.72,NNE,23,6.0,11.0,52,0.00,,---,0.01,VWS V14.01,2013-03-13 17:45:00,
2013-03-13 13:50:00,50.1,33.2,29.72,NNE,30,9.0,9.0,52,0.00,,---,0.01,VWS V14.01,2013-03-13 17:50:00,
2013-03-13 13:55:00,49.9,32.5,29.72,SW,222,5.0,11.0,51,0.00,,---,0.01,VWS V14.01,2013-03-13 17:55:00,
2013-03-13 14:00:00,49.9,32.5,29.72,SW,235,6.0,12.0,51,0.00,,---,0.01,VWS V14.01,2013-03-13 18:00:00,
2013-03-13 14:05:00,49.9,32.0,29.72,North,9,4.0,13.0,50,0.00,,---,0.01,VWS V14.01,2013-03-13 18:05:00,
2013-03-13 14:10:00,50.1,32.2,29.72,NNE,22,5.0,13.0,50,0.00,,---,0.01,VWS V14.01,2013-03-13 18:10:00,
2013-03-13 14:15:00,50.3,32.4,29.71,NNW,335,6.0,11.0,50,0.00,,---,0.01,VWS V14.01,2013-03-13 18:15:00,
2013-03-13 14:20:00,49.9,31.5,29.71,NW,326,6.0,10.0,49,0.00,,---,0.01,VWS V14.01,2013-03-13 18:20:00,
2013-03-13 14:25:00,50.0,31.6,29.71,West,281,9.0,12.0,49,0.00,,---,0.01,VWS V14.01,2013-03-13 18:25:00,
2013-03-13 14:30:00,49.8,31.4,29.71,West,278,5.0,12.0,49,0.00,,---,0.01,VWS V14.01,2013-03-13 18:30:00,
2013-03-13 14:35:00,49.7,31.3,29.72,North,7,1.0,12.0,49,0.00,,---,0.01,VWS V14.01,2013-03-13 18:35:00,
2013-03-13 14:40:00,49.6,30.7,29.71,North,355,3.0,9.0,48,0.00,,---,0.01,VWS V14.01,2013-03-13 18:40:00,
2013-03-13 14:45:00,49.6,30.7,29.71,NW,325,6.0,11.0,48,0.00,,---,0.01,VWS V14.01,2013-03-13 18:45:00,
2013-03-13 14:50:00,49.7,30.3,29.71,North,354,4.0,11.0,47,0.00,,---,0.01,VWS V14.01,2013-03-13 18:50:00,
2013-03-13 14:55:00,49.8,30.9,29.71,NNW,342,3.0,22.0,48,0.00,,---,0.01,VWS V14.01,2013-03-13 18:55:00,
2013-03-13 15:00:00,50.1,30.1,29.71,NW,316,4.0,11.0,46,0.00,,---,0.01,VWS V14.01,2013-03-13 19:00:00,
2013-03-13 15:05:00,50.0,31.1,29.71,North,360,5.0,10.0,48,0.00,,---,0.01,VWS V14.01,2013-03-13 19:05:00,
2013-03-13 15:10:00,50.0,30.6,29.71,NE,51,1.0,10.0,47,0.00,,---,0.01,VWS V14.01,2013-03-13 19:10:00,
2013-03-13 15:15:00,50.5,30.5,29.71,NNW,330,4.0,5.0,46,0.00,,---,0.01,VWS V14.01,2013-03-13 19:15:00,
2013-03-13 15:20:00,50.3,29.2,29.71,North,6,5.0,13.0,44,0.00,,---,0.01,VWS V14.01,2013-03-13 19:20:00,
2013-03-13 15:25:00,50.2,29.1,29.71,North,360,2.0,10.0,44,0.00,,---,0.01,VWS V14.01,2013-03-13 19:25:00,
2013-03-13 15:30:00,50.0,27.8,29.71,NNW,334,6.0,11.0,42,0.00,,---,0.01,VWS V14.01,2013-03-13 19:30:00,
2013-03-13 15:35:00,49.6,27.5,29.71,WNW,285,5.0,9.0,42,0.00,,---,0.01,VWS V14.01,2013-03-13 19:35:00,
2013-03-13 15:40:00,49.4,26.1,29.71,NNW,333,2.0,13.0,40,0.00,,---,0.01,VWS V14.01,2013-03-13 19:40:00,
2013-03-13 15:45:00,49.4,27.3,29.71,North,359,1.0,11.0,42,0.00,,---,0.01,VWS V14.01,2013-03-13 19:45:00,
2013-03-13 15:50:00,50.1,27.3,29.70,NNE,25,6.0,9.0,41,0.00,,---,0.01,VWS V14.01,2013-03-13 19:50:00,
2013-03-13 15:55:00,49.8,26.5,29.71,NNE,15,6.0,11.0,40,0.00,,---,0.01,VWS V14.01,2013-03-13 19:55:00,
2013-03-13 16:00:00,50.1,27.3,29.70,North,350,7.0,8.0,41,0.00,,---,0.01,VWS V14.01,2013-03-13 20:00:00,
2013-03-13 16:05:00,50.0,27.2,29.71,NNE,30,3.0,7.0,41,0.00,,---,0.01,VWS V14.01,2013-03-13 20:05:00,
2013-03-13 16:10:00,50.1,26.7,29.70,NNE,21,6.0,12.0,40,0.00,,---,0.01,VWS V14.01,2013-03-13 20:10:00,
2013-03-13 16:15:00,50.2,26.2,29.70,North,360,2.0,10.0,39,0.00,,---,0.01,VWS V14.01,2013-03-13 20:15:00,
2013-03-13 16:20:00,50.2,26.2,29.70,WSW,240,7.0,8.0,39,0.00,,---,0.01,VWS V14.01,2013-03-13 20:20:00,
2013-03-13 16:25:00,50.5,25.9,29.70,NNE,19,3.0,9.0,38,0.00,,---,0.01,VWS V14.01,2013-03-13 20:25:00,
2013-03-13 16:30:00,50.5,25.2,29.70,ENE,57,1.0,5.0,37,0.00,,---,0.01,VWS V14.01,2013-03-13 20:30:00,
2013-03-13 16:35:00,50.4,26.4,29.70,SSE,158,2.0,9.0,39,0.00,,---,0.01,VWS V14.01,2013-03-13 20:35:00,
2013-03-13 16:40:00,50.3,26.3,29.70,North,359,3.0,10.0,39,0.00,,---,0.01,VWS V14.01,2013-03-13 20:40:00,
2013-03-13 16:45:00,50.3,25.0,29.70,NNE,22,4.0,12.0,37,0.00,,---,0.01,VWS V14.01,2013-03-13 20:45:00,
2013-03-13 16:50:00,50.1,24.9,29.70,West,260,4.0,13.0,37,0.00,,---,0.01,VWS V14.01,2013-03-13 20:50:00,
2013-03-13 16:55:00,49.9,24.7,29.71,NW,315,5.0,12.0,37,0.00,,---,0.01,VWS V14.01,2013-03-13 20:55:00,
2013-03-13 17:00:00,49.6,24.4,29.70,NW,325,2.0,12.0,37,0.00,,---,0.01,VWS V14.01,2013-03-13 21:00:00,
2013-03-13 17:05:00,49.4,23.6,29.70,ESE,115,2.0,9.0,36,0.00,,---,0.01,VWS V14.01,2013-03-13 21:05:00,
2013-03-13 17:10:00,49.2,23.4,29.71,NNW,344,2.0,7.0,36,0.00,,---,0.01,VWS V14.01,2013-03-13 21:10:00,
2013-03-13 17:15:00,49.0,22.6,29.71,North,4,3.0,11.0,35,0.00,,---,0.01,VWS V14.01,2013-03-13 21:15:00,
2013-03-13 17:20:00,48.6,23.5,29.71,ENE,73,3.0,8.0,37,0.00,,---,0.01,VWS V14.01,2013-03-13 21:20:00,
2013-03-13 17:25:00,48.4,23.3,29.71,NW,309,0.0,6.0,37,0.00,,---,0.01,VWS V14.01,2013-03-13 21:25:00,
2013-03-13 17:30:00,48.0,22.3,29.71,NNE,25,0.0,7.0,36,0.00,,---,0.01,VWS V14.01,2013-03-13 21:30:00,
2013-03-13 17:35:00,47.9,22.9,29.71,NW,320,5.0,13.0,37,0.00,,---,0.01,VWS V14.01,2013-03-13 21:35:00,
2013-03-13 17:40:00,47.7,22.7,29.71,West,268,0.0,5.0,37,0.00,,---,0.01,VWS V14.01,2013-03-13 21:40:00,
2013-03-13 17:45:00,47.6,23.9,29.71,NNE,25,1.0,7.0,39,0.00,,---,0.01,VWS V14.01,2013-03-13 21:45:00,
2013-03-13 17:50:00,47.4,22.5,29.71,NNW,337,1.0,7.0,37,0.00,,---,0.01,VWS V14.01,2013-03-13 21:50:00,
2013-03-13 17:55:00,47.2,22.3,29.71,NW,325,5.0,9.0,37,0.00,,---,0.01,VWS V14.01,2013-03-13 21:55:00,
2013-03-13 18:00:00,47.1,22.8,29.72,NNW,336,4.0,12.0,38,0.00,,---,0.01,VWS V14.01,2013-03-13 22:00:00,
2013-03-13 18:05:00,46.9,22.0,29.72,NNE,21,2.0,7.0,37,0.00,,---,0.01,VWS V14.01,2013-03-13 22:05:00,
2013-03-13 18:10:00,46.6,22.4,29.72,NNW,347,2.0,9.0,38,0.00,,---,0.01,VWS V14.01,2013-03-13 22:10:00,
2013-03-13 18:15:00,46.5,22.3,29.72,NNE,13,0.0,11.0,38,0.00,,---,0.01,VWS V14.01,2013-03-13 22:15:00,
2013-03-13 18:20:00,46.3,22.7,29.73,NNW,347,2.0,7.0,39,0.00,,---,0.01,VWS V14.01,2013-03-13 22:20:00,
2013-03-13 18:25:00,46.1,22.5,29.73,North,11,0.0,5.0,39,0.00,,---,0.01,VWS V14.01,2013-03-13 22:25:00,
2013-03-13 18:30:00,46.0,21.8,29.73,North,358,2.0,6.0,38,0.00,,---,0.01,VWS V14.01,2013-03-13 22:30:00,
2013-03-13 18:35:00,45.8,21.6,29.73,NNW,342,7.0,7.0,38,0.00,,---,0.01,VWS V14.01,2013-03-13 22:35:00,
2013-03-13 18:40:00,45.5,21.4,29.74,North,6,3.0,10.0,38,0.00,,---,0.01,VWS V14.01,2013-03-13 22:40:00,
2013-03-13 18:45:00,45.3,21.2,29.74,NNW,341,4.0,13.0,38,0.00,,---,0.01,VWS V14.01,2013-03-13 22:45:00,
2013-03-13 18:50:00,45.1,21.0,29.74,NNW,335,3.0,11.0,38,0.00,,---,0.01,VWS V14.01,2013-03-13 22:50:00,
2013-03-13 18:55:00,44.9,21.5,29.74,NNE,12,3.0,7.0,39,0.00,,---,0.01,VWS V14.01,2013-03-13 22:55:00,
2013-03-13 19:00:00,44.6,21.8,29.75,WNW,303,3.0,9.0,40,0.00,,---,0.01,VWS V14.01,2013-03-13 23:00:00,
2013-03-13 19:05:00,44.4,22.2,29.75,SW,230,0.0,12.0,41,0.00,,---,0.01,VWS V14.01,2013-03-13 23:05:00,
2013-03-13 19:10:00,44.1,22.5,29.75,NW,312,6.0,7.0,42,0.00,,---,0.01,VWS V14.01,2013-03-13 23:10:00,
2013-03-13 19:15:00,43.8,22.2,29.75,NW,308,0.0,6.0,42,0.00,,---,0.01,VWS V14.01,2013-03-13 23:15:00,
2013-03-13 19:20:00,43.5,22.0,29.75,NNW,341,1.0,9.0,42,0.00,,---,0.01,VWS V14.01,2013-03-13 23:20:00,
2013-03-13 19:25:00,43.2,22.2,29.76,West,267,4.0,4.0,43,0.00,,---,0.01,VWS V14.01,2013-03-13 23:25:00,
2013-03-13 19:30:00,43.0,22.0,29.76,SW,226,1.0,13.0,43,0.00,,---,0.01,VWS V14.01,2013-03-13 23:30:00,
2013-03-13 19:35:00,42.8,21.3,29.76,North,4,3.0,4.0,42,0.00,,---,0.01,VWS V14.01,2013-03-13 23:35:00,
2013-03-13 19:40:00,42.7,21.2,29.76,NE,47,2.0,5.0,42,0.00,,---,0.01,VWS V14.01,2013-03-13 23:40:00,
2013-03-13 19:45:00,42.5,22.1,29.76,West,271,0.0,6.0,44,0.00,,---,0.01,VWS V14.01,2013-03-13 23:45:00,
2013-03-13 19:50:00,42.3,21.4,29.76,NW,321,0.0,4.0,43,0.00,,---,0.01,VWS V14.01,2013-03-13 23:50:00,
2013-03-13 19:55:00,42.1,22.3,29.77,WNW,295,1.0,4.0,45,0.00,,---,0.01,VWS V14.01,2013-03-13 23:55:00,
2013-03-13 20:00:00,41.8,22.0,29.77,WNW,295,0.0,1.0,45,0.00,,---,0.01,VWS V14.01,2013-03-14 00:00:00,
2013-03-13 20:05:00,41.6,21.9,29.77,WNW,295,0.0,3.0,45,0.00,,---,0.01,VWS V14.01,2013-03-14 00:05:00,
2013-03-13 20:10:00,41.3,21.6,29.77,NNW,341,0.0,2.0,45,0.00,,---,0.01,VWS V14.01,2013-03-14 00:10:00,
2013-03-13 20:15:00,41.2,22.0,29.78,SW,219,0.0,3.0,46,0.00,,---,0.01,VWS V14.01,2013-03-14 00:15:00,
2013-03-13 20:20:00,40.9,22.2,29.78,SW,232,0.0,1.0,47,0.00,,---,0.01,VWS V14.01,2013-03-14 00:20:00,
2013-03-13 20:25:00,40.4,22.3,29.78,SW,232,0.0,1.0,48,0.00,,---,0.01,VWS V14.01,2013-03-14 00:25:00,
2013-03-13 20:30:00,40.0,21.9,29.78,SW,232,0.0,2.0,48,0.00,,---,0.01,VWS V14.01,2013-03-14 00:30:00,
2013-03-13 20:35:00,39.8,21.7,29.78,NNE,23,0.0,3.0,48,0.00,,---,0.01,VWS V14.01,2013-03-14 00:35:00,
2013-03-13 20:40:00,40.0,21.4,29.78,North,356,0.0,6.0,47,0.00,,---,0.01,VWS V14.01,2013-03-14 00:40:00,
2013-03-13 20:45:00,40.0,21.4,29.78,NE,40,0.0,3.0,47,0.00,,---,0.01,VWS V14.01,2013-03-14 00:45:00,
2013-03-13 20:50:00,40.0,21.4,29.78,North,351,1.0,4.0,47,0.00,,---,0.01,VWS V14.01,2013-03-14 00:50:00,
2013-03-13 20:55:00,40.0,21.4,29.78,North,2,0.0,2.0,47,0.00,,---,0.01,VWS V14.01,2013-03-14 00:55:00,
2013-03-13 21:00:00,39.8,22.2,29.78,North,2,0.0,1.0,49,0.00,,---,0.01,VWS V14.01,2013-03-14 01:00:00,
2013-03-13 21:05:00,39.4,21.8,29.78,North,2,0.0,1.0,49,0.00,,---,0.01,VWS V14.01,2013-03-14 01:05:00,
2013-03-13 21:10:00,39.0,22.4,29.78,ENE,76,0.0,1.0,51,0.00,,---,0.01,VWS V14.01,2013-03-14 01:10:00,
2013-03-13 21:15:00,38.5,21.5,29.78,NNE,17,0.0,1.0,50,0.00,,---,0.01,VWS V14.01,2013-03-14 01:15:00,
2013-03-13 21:20:00,38.2,23.0,29.79,NNE,17,0.0,0.0,54,0.00,,---,0.01,VWS V14.01,2013-03-14 01:20:00,
2013-03-13 21:25:00,37.7,23.0,29.79,NNE,17,0.0,0.0,55,0.00,,---,0.01,VWS V14.01,2013-03-14 01:25:00,
2013-03-13 21:30:00,37.1,22.9,29.79,NNE,17,0.0,1.0,56,0.00,,---,0.01,VWS V14.01,2013-03-14 01:30:00,
2013-03-13 21:35:00,36.7,22.9,29.79,NNE,17,0.0,0.0,57,0.00,,---,0.01,VWS V14.01,2013-03-14 01:35:00,
2013-03-13 21:40:00,36.3,23.4,29.79,NNE,17,0.0,0.0,59,0.00,,---,0.01,VWS V14.01,2013-03-14 01:40:00,
2013-03-13 21:45:00,35.8,23.3,29.79,NNE,17,0.0,0.0,60,0.00,,---,0.01,VWS V14.01,2013-03-14 01:45:00,
2013-03-13 21:50:00,35.5,23.0,29.79,NNE,17,0.0,0.0,60,0.00,,---,0.01,VWS V14.01,2013-03-14 01:50:00,
2013-03-13 21:55:00,35.3,22.0,29.79,WNW,300,0.0,2.0,58,0.00,,---,0.01,VWS V14.01,2013-03-14 01:55:00,
2013-03-13 22:00:00,35.3,22.4,29.79,WNW,300,0.0,0.0,59,0.00,,---,0.01,VWS V14.01,2013-03-14 02:00:00,
2013-03-13 22:05:00,35.2,22.7,29.79,WNW,300,0.0,1.0,60,0.00,,---,0.01,VWS V14.01,2013-03-14 02:05:00,
2013-03-13 22:10:00,34.9,22.8,29.79,WNW,300,0.0,0.0,61,0.00,,---,0.01,VWS V14.01,2013-03-14 02:10:00,
2013-03-13 22:15:00,34.7,22.2,29.79,WNW,300,0.0,0.0,60,0.00,,---,0.01,VWS V14.01,2013-03-14 02:15:00,
2013-03-13 22:20:00,34.4,22.7,29.79,WNW,300,0.0,0.0,62,0.00,,---,0.01,VWS V14.01,2013-03-14 02:20:00,
2013-03-13 22:25:00,34.3,22.6,29.79,WNW,300,0.0,0.0,62,0.00,,---,0.01,VWS V14.01,2013-03-14 02:25:00,
2013-03-13 22:30:00,34.0,23.5,29.79,WNW,300,0.0,0.0,65,0.00,,---,0.01,VWS V14.01,2013-03-14 02:30:00,
2013-03-13 22:35:00,33.8,23.7,29.79,WNW,300,0.0,0.0,66,0.00,,---,0.01,VWS V14.01,2013-03-14 02:35:00,
2013-03-13 22:40:00,33.5,23.4,29.78,WNW,300,0.0,0.0,66,0.00,,---,0.01,VWS V14.01,2013-03-14 02:40:00,
2013-03-13 22:45:00,33.2,23.5,29.79,WNW,300,0.0,0.0,67,0.00,,---,0.01,VWS V14.01,2013-03-14 02:45:00,
2013-03-13 22:50:00,32.9,23.2,29.78,WNW,300,0.0,0.0,67,0.00,,---,0.01,VWS V14.01,2013-03-14 02:50:00,
2013-03-13 22:55:00,32.6,22.9,29.78,WNW,300,0.0,0.0,67,0.00,,---,0.01,VWS V14.01,2013-03-14 02:55:00,
2013-03-13 23:00:00,32.4,23.0,29.78,WNW,301,0.0,0.0,68,0.00,,---,0.01,VWS V14.01,2013-03-14 03:00:00,
2013-03-13 23:05:00,32.3,23.3,29.78,WNW,301,0.0,0.0,69,0.00,,---,0.01,VWS V14.01,2013-03-14 03:05:00,
2013-03-13 23:10:00,32.1,22.8,29.77,WNW,301,0.0,0.0,68,0.00,,---,0.01,VWS V14.01,2013-03-14 03:10:00,
2013-03-13 23:15:00,32.1,22.8,29.77,WNW,301,0.0,0.0,68,0.00,,---,0.01,VWS V14.01,2013-03-14 03:15:00,
2013-03-13 23:20:00,32.3,22.9,29.77,WNW,301,0.0,0.0,68,0.00,,---,0.01,VWS V14.01,2013-03-14 03:20:00,
2013-03-13 23:25:00,32.7,23.0,29.77,WNW,301,0.0,1.0,67,0.00,,---,0.01,VWS V14.01,2013-03-14 03:25:00,
2013-03-13 23:30:00,33.0,22.5,29.77,WNW,301,1.0,2.0,65,0.00,,---,0.01,VWS V14.01,2013-03-14 03:30:00,
2013-03-13 23:35:00,33.5,23.0,29.78,WNW,300,0.0,3.0,65,0.00,,---,0.01,VWS V14.01,2013-03-14 03:35:00,
2013-03-13 23:40:00,33.8,22.2,29.78,WNW,301,0.0,2.0,62,0.00,,---,0.01,VWS V14.01,2013-03-14 03:40:00,
2013-03-13 23:45:00,33.7,23.2,29.78,WNW,301,0.0,0.0,65,0.00,,---,0.01,VWS V14.01,2013-03-14 03:45:00,
2013-03-13 23:50:00,33.4,23.3,29.78,WNW,301,0.0,0.0,66,0.00,,---,0.01,VWS V14.01,2013-03-14 03:50:00,
2013-03-13 23:55:00,33.0,22.9,29.77,WNW,301,0.0,0.0,66,0.00,,---,0.01,VWS V14.01,2013-03-14 03:55:00,